Location: *
(53.2316°N, 4.5136°W)
Time: 04:37:59
(UTC+00:00)

Daily predictions for brighter satellites

Satellite Brightness Start Highest point End
(mag) Time Altitude Azimuth Time Altitude Azimuth Time Altitude Azimuth
Okean 1 Rocket 4.2 00:03:56 32° W 00:04:30 34° WNW 00:08:30 10° N
Cosmos 1544 Rocket 3.7 00:06:25 66° ENE 00:06:25 66° ENE 00:10:28 10° NNE
Genesis I 4.3 00:02:59 10° NW 00:06:48 40° NE 00:07:17 38° NE
NOSS 2-1 (C) 4.2 00:08:36 41° NE 00:08:36 41° NE 00:11:27 10° NE
Cosmos 1707 4.5 00:04:21 10° NNW 00:07:01 25° WNW 00:07:01 25° WNW
Meteor 1-4 Rocket 3.5 00:05:15 10° NNW 00:08:05 47° NNW 00:08:05 47° NNW
SL-14 R/B 4.4 00:06:18 10° N 00:09:56 37° ENE 00:09:56 37° ENE
NOSS 2-1 (D) 4.1 00:11:28 44° NE 00:11:28 44° NE 00:14:27 10° NE
Cosmos 2251 Rocket 3.7 00:05:16 10° NNW 00:10:31 58° WSW 00:10:44 58° WSW
Cosmos 1455 Rocket 3.1 00:11:06 75° N 00:11:06 75° N 00:15:09 10° N
ATLAS 2AS CENTAUR R/B 3.3 00:03:55 10° NW 00:11:48 62° NNE 00:18:43 12° ESE
Cosmos 2218 Rocket 4.3 00:05:45 10° NNW 00:11:58 56° W 00:13:25 46° SW
Cosmos 2360 Rocket 2.4 00:06:33 10° NW 00:12:01 51° WSW 00:12:15 51° WSW
COSMOS 2428 2.8 00:09:11 10° NNW 00:14:54 74° NE 00:16:11 54° ESE
Mayak 0.4 00:14:36 10° N 00:18:09 27° WNW 00:18:55 25° W
Cosmos 2219 Rocket 2.2 00:12:44 10° NNW 00:18:23 75° NE 00:19:32 56° ESE
Cosmos 1626 3.6 00:15:36 10° N 00:18:33 32° NE 00:18:33 32° NE
SL-16 R/B 4.1 00:14:55 12° ESE 00:19:29 28° NE 00:24:37 10° N
H-2A R/B 4.5 00:20:42 12° E 00:22:47 16° NE 00:25:21 10° NNE
Cosmos 1733 4.3 00:26:34 38° NE 00:26:34 38° NE 00:29:18 10° NNE
Cosmos 2297 Rocket 4.5 00:24:48 10° ESE 00:25:46 11° E 00:26:54 10° E
Cosmos 389 Rocket 4.3 00:24:07 10° NNW 00:26:08 26° NW 00:26:08 26° NW
Cosmos 1758 Rocket 4.3 00:23:21 10° N 00:27:34 43° ENE 00:27:44 43° E
Cosmos 1626 Rocket 3.7 00:23:37 10° NNW 00:27:40 68° NW 00:27:40 68° NW
Cosmos 2333 4.1 00:24:09 10° NW 00:29:45 70° WSW 00:30:11 67° SSW
Cosmos 1825 Rocket 4.3 00:27:44 10° N 00:32:02 45° ENE 00:32:15 44° E
Nadezhda 3 Rocket 4.0 00:32:04 56° SSE 00:33:17 71° E 00:39:26 10° NNE
USA 215 4.1 00:28:18 10° ENE 00:33:42 31° SE 00:33:42 31° SE
NOSS 2-2 (C) 4.4 00:28:38 10° NW 00:34:04 83° NE 00:37:35 32° SE
SL-19 R/B 4.2 00:29:44 10° NNE 00:34:55 60° ESE 00:35:20 58° SE
Cosmos 1602 Rocket 3.7 00:31:56 10° NNW 00:36:05 70° WNW 00:36:05 70° WNW
Cosmos 1674 4.0 00:37:02 10° NNW 00:39:41 35° NW 00:39:41 35° NW
NOSS 0 Rocket 4.0 00:34:42 10° NNW 00:40:54 73° NE 00:43:14 40° SE
ERS-2 3.4 00:43:54 36° NW 00:43:54 36° NW 00:46:21 10° NNW
Cosmos 2322 4.0 00:38:21 10° NW 00:43:50 48° WSW 00:43:55 48° WSW
Cosmos 2237 Rocket 2.7 00:38:25 10° NNW 00:44:01 55° NE 00:46:42 30° ESE
Cosmos 1980 4.1 00:40:26 10° NNW 00:46:05 60° NE 00:48:26 34° ESE
Cosmos 1805 3.9 00:50:06 52° NW 00:50:06 52° NW 00:53:24 10° N
Cosmos 1766 3.9 00:50:15 52° NW 00:50:15 52° NW 00:53:43 10° N
Meteor 2-12 Rocket 4.3 00:45:42 10° NNW 00:51:47 79° W 00:52:56 59° SSW
NOSS 2-1 (E) 3.9 00:52:40 51° NW 00:52:45 51° NNW 00:57:02 10° NE
SL-16 R/B 3.7 00:48:05 10° NNW 00:53:13 34° NE 00:58:21 10° ESE
COSMOS 2487 4.5 01:00:55 22° NW 01:00:55 22° NW 01:03:42 10° N
CZ-2D R/B 3.9 00:58:58 10° NE 01:03:13 22° E 01:05:06 19° ESE
Cosmos 1437 Rocket 4.1 00:59:37 10° NNW 01:02:28 32° WNW 01:02:28 32° WNW
Cosmos 1953 3.2 01:04:08 41° ENE 01:04:08 41° ENE 01:07:34 10° NNE
Cosmos 1833 4.3 01:03:34 50° WSW 01:04:59 70° NW 01:10:44 10° NNE
Cosmos 2322 Rocket 4.4 01:03:55 10° WNW 01:05:33 12° W 01:05:33 12° W
IKONOS-2 4.5 01:06:00 78° NE 01:06:00 78° NE 01:10:10 10° NNW
PSLV R/B 3.5 01:02:07 10° NNE 01:06:32 80° ESE 01:06:32 80° ESE
Cosmos 407 Rocket 3.3 01:01:25 10° NNW 01:06:40 77° WSW 01:07:04 72° SSW
Cosmos 1140 Rocket 3.5 01:02:09 10° NNW 01:07:26 79° ENE 01:08:31 56° SE
Cosmos 2333 Rocket 2.3 01:02:14 10° NW 01:07:45 54° WSW 01:07:56 53° WSW
Cosmos 1605 Rocket 4.1 01:01:50 10° N 01:08:13 75° ENE 01:10:24 44° SSE
Cosmos 1535 Rocket 4.5 01:03:06 10° NNW 01:09:27 78° W 01:11:02 53° S
Cosmos 1726 4.3 01:11:00 18° E 01:11:11 18° E 01:13:49 10° NE
USA 267 3.1 01:04:48 10° ESE 01:11:21 79° SSW 01:17:56 10° WNW
Cosmos 1954 Rocket 4.2 01:08:44 10° NNW 01:14:04 71° ENE 01:15:40 45° SE
Cosmos 2219 4.0 01:13:05 35° SE 01:14:05 38° ESE 01:19:21 10° NE
Cosmos 1821 Rocket 4.3 01:08:04 10° NNW 01:14:13 52° W 01:15:29 45° SW
Cosmos 405 Rocket 4.3 01:16:02 26° WNW 01:16:02 26° WNW 01:19:04 10° N
Cosmos 2058 Rocket 4.1 01:15:42 34° ESE 01:16:17 36° E 01:20:26 10° NNE
NOSS 3-4 (A) 3.8 01:10:56 10° NW 01:17:46 81° NE 01:25:18 10° SE
NOSS 3-4 (C) 3.8 01:11:03 10° NW 01:17:53 81° NE 01:25:25 10° SE
COSMOS 2455 3.2 01:13:58 10° NW 01:19:42 45° WSW 01:19:47 45° WSW
Cosmos 1934 Rocket 4.0 01:17:40 10° NNW 01:23:42 64° W 01:24:57 52° SW
Cosmos 676 Rocket 3.9 01:20:20 10° NNW 01:25:43 89° ENE 01:26:57 55° SSE
CZ-4C R/B 3.3 01:23:05 16° W 01:27:21 45° NNW 01:33:46 10° NE
CZ-4B R/B 3.3 01:23:38 10° NNE 01:28:24 70° ESE 01:28:59 62° SSE
NOSS 3-3 (C) 4.1 01:28:31 49° S 01:29:58 63° SE 01:36:41 10° NE
NOSS 3-3 (A) 4.1 01:28:31 50° S 01:29:58 63° SE 01:36:42 10° NE
Lacrosse 4 Rocket 3.9 01:29:43 10° WNW 01:30:01 11° WNW 01:30:01 11° WNW
Meteor 1-21 Rocket 4.2 01:27:14 10° NNW 01:32:49 67° W 01:33:55 55° SSW
ERBS 3.8 01:35:02 31° ENE 01:35:02 31° ENE 01:36:58 10° ENE
Cosmos 1953 Rocket 3.5 01:30:06 10° NNW 01:34:32 70° W 01:34:32 70° W
Cosmos 1470 3.1 01:38:56 54° NW 01:38:56 54° NW 01:42:27 10° N
Cosmos 614 Rocket 4.3 01:35:38 10° NW 01:40:37 46° WSW 01:40:40 46° WSW
Cosmos 1271 Rocket 2.8 01:44:42 10° N 01:48:32 68° ENE 01:48:41 67° E
Cosmos 1190 Rocket 4.5 01:43:39 10° NW 01:48:38 42° WSW 01:48:43 42° WSW
Timation 2 Rocket 4.4 01:48:13 34° WSW 01:51:12 61° NW 01:57:40 10° NNE
Cosmos 1850 Rocket 4.3 01:47:29 10° NNW 01:52:44 66° ENE 01:56:06 22° SE
Cosmos 1726 Rocket 3.4 01:52:24 70° SW 01:52:47 77° WNW 01:57:14 10° N
Cosmos 2227 Rocket 2.9 01:51:04 33° SSE 01:52:48 42° ESE 01:58:08 10° NE
Cosmos 1626 4.0 01:51:09 10° NW 01:53:06 21° WNW 01:53:06 21° WNW
Cosmos 2056 Rocket 3.5 01:55:31 52° SSW 01:56:55 89° WNW 02:02:24 10° NNE
Cosmos 1328 3.6 01:52:59 10° NNW 01:56:59 83° W 01:57:02 83° WSW
H-2A R/B 1.8 01:57:48 70° S 01:58:16 83° WSW 02:02:27 10° NNW
COSMOS 2428 4.0 01:54:09 10° NW 01:58:09 24° W 01:58:09 24° W
Cosmos 1758 4.3 01:59:14 35° WNW 01:59:22 35° WNW 02:03:10 10° N
SAR-Lupe-1 4.1 02:00:03 75° NW 02:00:03 75° NW 02:03:26 10° NNW
Resurs 1-4 Rocket 2.4 01:55:21 10° NNE 02:00:33 57° E 02:02:28 36° SSE
Cosmos 2219 Rocket 3.5 01:57:27 10° NW 02:01:13 23° W 02:01:13 23° W
SL-16 R/B 2.4 02:00:01 37° S 02:02:37 75° WSW 02:08:49 10° NNW
ATLAS 2AS CENTAUR R/B 3.0 01:55:19 10° NW 02:02:49 53° WSW 02:06:01 32° S
Cosmos 1741 Rocket 4.1 01:58:58 10° NNW 02:04:19 77° ENE 02:07:52 22° SSE
Meteor 1-16 Rocket 4.3 02:06:10 42° S 02:08:20 88° ESE 02:14:18 10° NNE
Cosmos 2297 Rocket 2.5 02:06:37 37° S 02:08:36 56° ESE 02:14:09 10° NE
AQUA 4.3 02:04:15 10° NNE 02:08:55 53° E 02:10:37 35° SSE
Cosmos 2173 Rocket 4.0 02:03:36 10° N 02:09:53 82° E 02:13:43 26° SSE
Cosmos 2061 Rocket 4.4 02:04:17 10° N 02:10:42 66° ENE 02:15:49 17° SSE
Cosmos 1727 Rocket 4.0 02:08:18 38° SSW 02:10:58 86° WNW 02:17:21 10° N
CZ-4C R/B 3.3 02:12:37 50° ESE 02:13:16 62° ENE 02:16:43 10° N
Cosmos 1624 Rocket 4.1 02:13:21 43° SW 02:14:58 66° WNW 02:20:11 10° NNE
MOZ.5/SAFIR/RUBIN 5/SL-8 3.9 02:15:31 49° SW 02:16:26 58° W 02:21:10 10° NNW
Cosmos 2228 3.5 02:17:03 42° W 02:17:35 44° WNW 02:21:44 10° N
USA 215 3.2 02:11:08 10° ENE 02:17:42 76° SSE 02:21:01 32° SW
ARIANE 5 R/B 3.9 02:15:35 10° NNE 02:20:20 33° E 02:23:54 16° SSE
Cosmos 1703 3.4 02:17:27 10° NNW 02:21:17 55° W 02:21:21 55° W
Cosmos 1812 Rocket 4.3 02:20:24 30° SSE 02:22:10 48° E 02:26:22 10° NNE
UNK 4.0 02:24:28 44° SW 02:25:12 49° W 02:29:46 10° NNW
Cosmos 2237 Rocket 2.8 02:22:50 10° NW 02:27:54 34° WSW 02:28:28 33° WSW
Meteor 2-10 4.2 02:26:14 35° SSW 02:28:48 90° E 02:34:34 10° NNE
Cosmos 1980 4.5 02:24:57 10° NW 02:29:52 31° WSW 02:30:13 31° WSW
BREEZE-M DEB (TANK) 3.6 02:32:22 19° ESE 02:32:22 19° ESE 02:33:58 10° E
Cosmos 1420 Rocket 4.0 02:31:39 38° SSW 02:33:44 87° ESE 02:39:05 10° NNE
IRS-1D 3.8 02:28:36 10° NNE 02:33:46 66° ESE 02:36:31 28° S
SL-16 R/B 2.1 02:32:08 10° NW 02:37:45 64° WSW 02:41:59 18° SSE
CBERS-1 4.0 02:33:37 10° NNE 02:38:46 83° ESE 02:41:13 32° S
Cosmos 2016 Rocket 3.9 02:33:01 10° N 02:39:15 89° W 02:43:56 18° S
SeaSat 1 2.6 02:35:03 10° NE 02:40:01 69° ESE 02:42:13 33° SSW
ADEOS II 3.0 02:35:16 10° NNE 02:40:19 44° E 02:44:10 16° SSE
Cosmos 1953 3.8 02:39:50 22° W 02:40:24 22° WNW 02:43:36 10° NNW
Cosmos 2100 Rocket 4.1 02:37:23 10° NNW 02:43:37 59° W 02:47:06 27° SSW
CZ-2D R/B 2.2 02:38:22 10° NNE 02:43:50 73° WNW 02:46:25 32° SSW
Cosmos 1076 Rocket 3.4 02:40:00 10° NNW 02:44:16 85° W 02:46:20 30° S
Cosmos 1726 2.5 02:45:32 42° WSW 02:46:06 46° WNW 02:49:45 10° N
Cosmos 2233 Rocket 4.4 02:42:26 10° N 02:48:34 61° ENE 02:54:37 10° SSE
RESURS DK-1 3.9 02:45:28 10° NNW 02:49:24 39° NE 02:53:18 10° ESE
Cosmos 1802 Rocket 4.0 02:45:19 10° NNW 02:51:24 65° W 02:55:27 22° S
Cosmos 2151 4.0 02:48:36 10° N 02:52:41 45° ENE 02:56:43 10° SSE
Cosmos 1452 Rocket 3.5 02:51:39 32° SW 02:54:11 78° WNW 02:59:30 10° NNE
Cosmos 2058 Rocket 4.1 02:52:59 27° WSW 02:54:20 33° WNW 02:58:26 10° N
USA 267 3.8 02:49:14 10° SSE 02:55:01 33° SW 03:00:50 10° WNW
Cosmos 1908 3.6 02:56:15 38° WSW 02:57:12 48° WNW 03:00:57 10° N
Cosmos 1459 Rocket 4.2 02:51:23 10° NNW 02:57:19 50° W 03:00:40 25° SSW
Cosmos 2082 3.8 02:54:13 27° SSW 02:57:27 78° ESE 03:03:12 10° NNE
CZ-4B R/B 1.4 02:56:22 26° SSE 02:58:04 79° ENE 03:01:27 10° NNW
Cosmos 2219 3.7 02:55:01 26° WSW 02:58:08 52° NW 03:03:47 10° NNE
In-Cosmos 22 Rocket 4.4 02:56:05 10° NNW 03:01:51 76° ENE 03:07:26 10° SSE
Cosmos 1461 2.8 03:01:50 35° SSW 03:03:25 73° SE 03:07:24 10° NE
Cosmos 2123 Rocket 4.1 02:58:44 18° S 03:03:34 81° E 03:09:53 10° NNE
NOSS 3-4 (A) 4.4 03:02:11 10° WNW 03:08:20 34° WSW 03:14:58 10° S
NOSS 3-4 (C) 4.4 03:02:17 10° WNW 03:08:27 34° WSW 03:15:06 10° S
IRS-1C 4.1 03:03:23 10° NNE 03:08:46 84° WNW 03:12:18 22° SSW
Cosmos 2263 Rocket 4.2 03:04:55 10° SSE 03:09:15 23° ESE 03:13:36 10° NE
ERBS 3.2 03:08:04 19° WNW 03:10:09 46° N 03:13:26 10° ENE
Landsat 5 3.7 03:09:38 32° SW 03:10:46 41° W 03:14:26 10° NNW
Intercosmos 25 Rocket 3.3 03:10:03 23° S 03:11:51 59° E 03:15:11 10° NNE
deb Chang Zheng 4 3.6 03:07:34 10° NNE 03:11:53 69° WNW 03:14:12 27° SSW
Cosmos 2285 Rocket 4.3 03:07:26 10° NNW 03:13:51 73° ENE 03:20:16 10° SSE
Cosmos 1242 Rocket 3.3 03:11:11 10° NNW 03:14:16 30° W 03:14:35 30° WSW
SL-08 R/B 3.9 03:12:40 24° SSW 03:15:05 40° W 03:19:47 10° NNW
Cosmos 1455 4.4 03:12:36 10° SE 03:15:37 23° E 03:18:38 10° NE
Cosmos 1238 Rocket 4.1 03:13:05 10° N 03:15:47 30° ENE 03:18:35 10° SE
CZ-4C R/B 4.1 03:11:47 10° WNW 03:17:22 34° N 03:23:52 10° ENE
Cosmos 1300 2.6 03:15:26 26° SSW 03:17:29 82° W 03:21:21 10° N
Cosmos 1725 Rocket 4.0 03:11:43 10° NNW 03:17:51 62° W 03:23:33 12° S
NPP 4.3 03:12:50 10° N 03:17:56 43° WNW 03:21:04 21° WSW
Cosmos 1825 4.2 03:20:43 10° N 03:24:09 31° ENE 03:27:33 10° SE
Cosmos 2058 3.2 03:24:00 10° NNW 03:27:56 46° W 03:30:32 19° SSW
CZ-2D R/B 3.6 03:24:08 10° NNE 03:28:34 78° ESE 03:32:10 14° S
Cosmos 1766 Rocket 3.5 03:26:00 10° NNW 03:30:31 78° W 03:34:59 10° S
Meteor 1-28 Rocket 3.2 03:27:11 10° SSE 03:30:52 79° ENE 03:34:36 10° NNW
Cosmos 1408 3.7 03:28:49 10° N 03:32:17 44° ENE 03:35:44 10° SSE
Okean 3 Rocket 3.7 03:30:21 10° NNW 03:34:39 54° W 03:38:45 11° S
H-2A R/B 4.1 03:34:55 11° W 03:34:56 11° W 03:36:23 10° WNW
Cosmos 2227 Rocket 2.8 03:32:53 18° WSW 03:36:53 46° NW 03:42:21 10° NNE
Resurs 1-4 Rocket 3.2 03:35:38 10° N 03:40:08 29° WNW 03:43:33 15° WSW
Cosmos 1689 Rocket 2.5 03:41:25 18° SSW 03:43:24 43° W 03:46:20 10° NNW
SL-16 R/B 4.0 03:45:07 14° WSW 03:47:18 16° W 03:51:01 10° NW
Cosmos 332 Rocket 4.4 03:46:24 10° S 03:51:05 55° ESE 03:55:48 10° NNE
ATLAS 2AS CENTAUR R/B 4.3 03:48:48 10° WNW 03:52:01 13° W 03:53:20 13° WSW
Cosmos 2297 Rocket 3.1 03:48:26 14° WSW 03:52:55 37° NW 03:58:12 10° NNE
Cosmos 1892 2.9 03:52:44 10° NNW 03:56:27 49° W 04:00:11 10° S
BREEZE-M DEB (TANK) 4.2 03:53:30 15° WSW 03:56:43 62° SSE 04:09:10 10° E
Spot 4 Rocket 4.3 03:53:16 10° N 03:58:19 55° WNW 04:03:08 11° SW
ARIANE 5 R/B 3.0 03:54:35 10° N 03:59:36 47° WNW 04:04:14 12° SW
Cosmos 2221 3.9 03:56:20 10° SSE 04:00:25 40° E 04:04:32 10° NNE
USA 215 3.6 03:54:14 10° ENE 04:00:44 69° N 04:07:14 10° W
Cosmos 1302 Rocket 4.2 03:56:33 10° SSW 04:01:45 73° ESE 04:06:58 10° NNE
Cosmos 1842 Rocket 4.1 04:01:21 10° S 04:05:42 62° E 04:10:01 10° NNE
Cosmos 1486 Rocket 4.0 04:00:46 10° NNW 04:05:54 59° WSW 04:11:01 10° S
Cosmos 1943 3.3 04:01:11 10° NW 04:06:48 59° WSW 04:12:23 10° SSE
Cosmos 1500 Rocket 3.6 04:05:25 10° N 04:09:47 86° E 04:14:06 10° S
H-2A R/B 3.1 04:08:52 10° NNE 04:13:08 58° ESE 04:17:11 10° S
Cosmos 1603 4.1 04:07:57 10° NW 04:13:11 40° WSW 04:18:24 10° S
SeaSat 1 3.7 04:12:57 10° NNE 04:17:15 30° NW 04:21:31 10° W
Cosmos-2242 3.7 04:13:53 10° SW 04:17:52 37° WNW 04:21:53 10° N
ADEOS II 2.9 04:15:10 10° N 04:19:57 36° WNW 04:24:43 10° SW
ADEOS 3.7 04:15:22 10° NNE 04:20:38 85° ESE 04:25:52 10° SSW
SL-16 R/B 3.9 04:18:26 10° WNW 04:20:46 13° W 04:23:06 10° WSW
PSLV R/B 4.2 04:17:16 10° S 04:21:23 51° W 04:25:31 10° NNW
CZ-2D R/B 4.0 04:19:34 10° N 04:23:02 17° NW 04:26:29 10° W
Cosmos 1503 Rocket 4.0 04:19:46 10° NNW 04:25:07 71° WSW 04:30:22 10° SSE
Cosmos 1331 Rocket 4.5 04:20:45 10° SW 04:25:54 49° NW 04:31:04 10° NNE
RESURS DK-1 3.0 04:23:39 10° NW 04:27:24 33° WSW 04:31:06 10° S
CZ-2C R/B 3.6 04:24:26 10° N 04:28:09 36° WNW 04:31:52 10° SW
Cosmos 2151 4.2 04:26:25 10° NW 04:29:43 23° W 04:33:01 10° SW
Cosmos 2034 Rocket 4.0 04:27:23 10° NNW 04:33:43 82° W 04:39:57 10° S
Cosmos 1464 Rocket 4.1 04:28:54 10° NNW 04:35:02 62° W 04:41:13 10° S
ATLAS CENTAUR R/B 4.4 04:32:53 10° SSE 04:35:47 16° ESE 04:38:41 10° ENE
